sat.trackr.live / text

‹ back to catalog

STARLINK-35641

NORAD 66167 · 2025-240X

PAYLOAD ACTIVE UNKNOWN

§ Identity

Operator
Country
US
Launch date
2025-10-25
Launch site
AFWTR
Launch vehicle
Mass (kg)
RCS (m²)

Purposes: comms

External: N2YO · Heavens-Above · Gunter

§ Orbital elements

Epoch: 2026-05-25T02:00:33.891840Z

Period
93.85 min
Inclination
53.1588°
Eccentricity
0.0000958
Mean motion
15.34403254 rev/d
Perigee alt
462.0 km
Apogee alt
463.3 km
Semi-major
6,840.8 km
B*
6.8956e-4
RAAN
67.3213°
Arg perigee
79.8170°
Mean anomaly
280.2941°
Rev number
3,369

§ Raw data

STARLINK-356411 66167U 25240X   26145.08372560  .00022995  00000+0  68956-3 0  99912 66167  53.1588  67.3213 0000958  79.8170 280.2941 15.34403254 33692

JSON: /api/v1/satellites/66167 · /tle

For live sub-satellite position, see the globe view (requires WebGL).

§ Visibility from observer

Set your observer location to see the next 7 days of passes ≥ 10°. The values pass through the URL so the page stays shareable.

No JS? Fill the form by hand. The geolocation button needs JavaScript.